FW5242 Weather Reports


time (UTC)temp
C
wind
direction
speed
KPH
gust
KPH
rain 1hr
cm
rain 24hr
cm
rain mn
cm
humidity
%
barometer
mb
20260504081512 2 360 0.0 3.2 0.00 0.00 0.00 86 1014.2
20260504044555 2 360 0.0 1.6 0.00 0.00 0.00 85 1014.1
20260504043054 2 360 0.0 1.6 0.00 0.00 0.00 85 1014.1
20260504041553 2 360 0.0 1.6 0.00 0.00 0.00 84 1014.0
20260504040050 2 360 0.0 1.6 0.00 0.00 0.00 84 1013.8
20260504034549 3 360 0.0 1.6 0.00 0.00 0.00 83 1013.8
20260504033054 3 360 0.0 1.6 0.00 0.00 0.00 83 1013.7
20260504031558 3 360 0.0 1.6 0.00 0.00 0.00 83 1013.7
20260504030050 3 360 0.0 1.6 0.00 0.00 0.00 82 1013.7
20260504024557 3 360 0.0 1.6 0.00 0.00 0.00 82 1013.9
20260504023047 4 360 0.0 1.6 0.00 0.00 0.00 81 1013.8
20260504021552 4 360 0.0 1.6 0.00 0.00 0.00 81 1013.8
20260504020049 5 360 0.0 1.6 0.00 0.00 0.00 80 1013.7
20260504014546 5 360 0.0 1.6 0.00 0.00 0.00 79 1013.7
20260504013052 5 360 0.0 1.6 0.00 0.00 0.00 78 1013.5
20260504011545 6 360 0.0 3.2 0.00 0.00 0.00 77 1013.3
20260504010045 7 360 0.0 3.2 0.00 0.00 0.00 75 1013.3
20260504004559 7 360 0.0 3.2 0.00 0.00 0.00 72 1013.3
20260504003043 8 360 0.0 1.6 0.00 0.00 0.00 69 1012.9
20260504001546 10 360 0.0 3.2 0.00 0.00 0.00 64 1012.8
20260504000044 11 360 0.0 1.6 0.00 0.00 0.00 58 1012.7
20260503234542 12 360 0.0 1.6 0.00 0.00 0.00 53 1012.7
20260503233041 12 360 0.0 3.2 0.00 0.00 0.00 48 1012.5
20260503231549 12 360 0.0 1.6 0.00 0.00 0.00 48 1012.5
20260503230041 12 360 0.0 6.4 0.00 0.00 0.00 48 1012.4
20260503224541 12 360 0.0 4.8 0.00 0.00 0.00 46 1012.4
20260503223040 13 360 1.6 12.9 0.00 0.00 0.00 43 1012.4
20260503221540 13 296 3.2 8.0 0.00 0.00 0.00 42 1012.4
20260503220040 13 171 0.0 9.7 0.00 0.00 0.00 43 1012.4
20260503214538 14 137 1.6 9.7 0.00 0.00 0.00 43 1012.5
20260503213037 14 5 1.6 9.7 0.00 0.00 0.00 42 1012.4
20260503211540 13 263 4.8 19.3 0.00 0.00 0.00 42 1012.3
20260503210036 13 261 4.8 14.5 0.00 0.00 0.00 42 1012.5
20260503204535 13 224 3.2 17.7 0.00 0.00 0.00 40 1012.4
20260503203037 13 312 1.6 12.9 0.00 0.00 0.00 40 1012.3
20260503201535 13 315 3.2 11.3 0.00 0.00 0.00 36 1012.4
20260503200033 13 260 3.2 12.9 0.00 0.00 0.00 38 1012.4
20260503194540 13 265 4.8 14.5 0.00 0.00 0.00 37 1012.6
20260503193038 14 360 3.2 17.7 0.00 0.00 0.00 39 1012.8
20260503191527 13 327 6.4 19.3 0.00 0.00 0.00 38 1012.9
20260503190031 13 101 1.6 6.4 0.00 0.00 0.00 42 1013.3
20260503184520 12 163 3.2 12.9 0.00 0.00 0.00 37 1013.7
20260503183017 12 324 3.2 12.9 0.00 0.00 0.00 40 1013.7
20260503181514 12 250 4.8 11.3 0.00 0.00 0.00 42 1014.0
20260503180012 12 120 3.2 14.5 0.00 0.00 0.00 41 1014.1
20260503174509 11 308 1.6 11.3 0.00 0.00 0.00 42 1014.3
20260503173016 11 309 4.8 19.3 0.00 0.00 0.00 42 1014.5
20260503171506 11 308 4.8 12.9 0.00 0.00 0.00 43 1014.7